Regional Weather Roundup
Issued by NWS

Home | Current Version | Previous Version | Graphics & Text | Print | Product List | Glossary On
Versions: 1 2 3 4 5 6 7 8 9 10 11 12 13 14 15 16 17 18 19 20 21 22 23 24 25 26 27 28 29 30 31 32 33 34 35 36 37 38 39 40 41 42 43 44 45 46 47 48 49 50
000
ASUS45 KCYS 270410
RWRWY

WYOMING REGIONAL WEATHER ROUNDUP
NATIONAL WEATHER SERVICE CHEYENNE WY
1000 PM MDT WED AUG 26 2015

NOTE:  "FAIR" INDICATES FEW OR NO CLOUDS BELOW 12,000 FEET
WITH NO SIGNIFICANT WEATHER AND/OR OBSTRUCTIONS TO VISIBILITY.

WYZ001-270500-
YELLOWSTONE NATIONAL PARK

CITY           SKY/WX    TMP DP  RH WIND       PRES   REMARKS
LK YELLOWSTONE   N/A     51  44  77 CALM      30.43F
W YELLOWSTONE  NOT AVBL

$$
WYZ002>013-054>058-071-098>099-270500-
NORTHERN WYOMING

CITY           SKY/WX    TMP DP  RH WIND       PRES   REMARKS
JACKSON        CLOUDY    54  52  94 CALM      30.37R
CODY           CLOUDY    66  48  52 SW8       30.23R
GREYBULL       FAIR      75  44  33 W10       30.10S
WORLAND        CLOUDY    71  49  45 SW14      30.16R
SHERIDAN       MOCLDY    80  39  23 W18       30.05S
BUFFALO        FAIR      76  39  26 NW10      30.13R
GILLETTE       FAIR      67  49  52 NW3       30.05S
HULETT         MOCLDY    66  63  88 S7        30.07F
NEWCASTLE      FAIR      68  54  60 E12G21    30.07S

$$
WYZ014>020-022>026-101>103-270500-
CENTRAL WYOMING

CITY           SKY/WX    TMP DP  RH WIND       PRES   REMARKS
BIG PINEY      LGT RAIN  57  50  77 N9        30.38R
PINEDALE       RAIN      54  54 100 NW3       30.39R
DUBOIS         LGT RAIN  54  48  82 W3        30.39R
LANDER         MOCLDY    65  52  62 SW8       30.23F
RIVERTON       LGT RAIN  65  53  65 NW16      30.25R
CASPER         MOCLDY    75  40  28 W8        30.17F
DOUGLAS        FAIR      77  44  30 W9        30.12R

$$
WYZ021-027>030-104>119-270500-
SOUTHERN WYOMING

CITY           SKY/WX    TMP DP  RH WIND       PRES   REMARKS
EVANSTON       RAIN      57  55  93 NW5       30.36R FOG
KEMMERER       CLOUDY    59  50  72 N10       30.36S
FORT BRIDGER   CLOUDY    61  59  94 E6        30.37R
ROCK SPRINGS   LGT RAIN  58  54  86 E6        30.34S
DIXON          DRIZZLE   63  55  77 CALM      30.38S
RAWLINS        LGT RAIN  60  54  80 SW6       30.35R
SARATOGA       RAIN      57  54  88 SW8G16    30.38R
LARAMIE        FAIR      62  46  55 W3        30.30R
CHEYENNE       FAIR      69  46  43 W10       30.20R
TORRINGTON     FAIR      75  50  41 N8        30.01F
PINE BLUFFS    FAIR      70  43  37 NW3       30.13R

$$


USA.gov is the U.S. government's official web portal to all federal, state and local government web resources and services.